Year,Month,Day,Hour,Minute,Value (Times are PST for temperature in C)
2007,08,30,00,00,16.50
2007,08,30,00,01,16.50
2007,08,30,00,02,16.40
2007,08,30,00,03,16.40
2007,08,30,00,04,16.30
2007,08,30,00,05,16.30
2007,08,30,00,06,16.30
2007,08,30,00,07,16.20
2007,08,30,00,08,16.20
2007,08,30,00,09,16.20
2007,08,30,00,10,16.20
2007,08,30,00,11,16.10
2007,08,30,00,12,16.10
2007,08,30,00,13,16.10
2007,08,30,00,14,16.10
2007,08,30,00,15,16.00
2007,08,30,00,16,16.00
2007,08,30,00,17,16.00
2007,08,30,00,18,15.90
2007,08,30,00,19,15.90
2007,08,30,00,20,15.90
2007,08,30,00,21,15.90
2007,08,30,00,22,15.90
2007,08,30,00,23,16.00
2007,08,30,00,24,16.00
2007,08,30,00,25,16.10
2007,08,30,00,26,16.10
2007,08,30,00,27,16.10
2007,08,30,00,28,16.10
2007,08,30,00,29,16.20
2007,08,30,00,30,16.20
2007,08,30,00,31,16.20
2007,08,30,00,32,16.20
2007,08,30,00,33,16.20
2007,08,30,00,34,16.20
2007,08,30,00,35,16.10
2007,08,30,00,36,16.10
2007,08,30,00,37,16.10
2007,08,30,00,38,16.10
2007,08,30,00,39,16.10
2007,08,30,00,40,16.00
2007,08,30,00,41,16.00
2007,08,30,00,42,15.90
2007,08,30,00,43,15.90
2007,08,30,00,44,15.90
2007,08,30,00,45,15.90
2007,08,30,00,46,15.90
2007,08,30,00,47,15.80
2007,08,30,00,48,15.80
2007,08,30,00,49,15.80
2007,08,30,00,50,15.80
2007,08,30,00,51,15.80
2007,08,30,00,52,15.80
2007,08,30,00,53,15.80
2007,08,30,00,54,15.80
2007,08,30,00,55,15.80
2007,08,30,00,56,15.80
2007,08,30,00,57,15.80
2007,08,30,00,58,15.80
2007,08,30,00,59,15.80
2007,08,30,01,00,15.80
2007,08,30,01,01,15.80
2007,08,30,01,02,15.80
2007,08,30,01,03,15.70
2007,08,30,01,04,15.70
2007,08,30,01,05,15.70
2007,08,30,01,06,15.70
2007,08,30,01,07,15.70
2007,08,30,01,08,15.70
2007,08,30,01,09,15.70
2007,08,30,01,10,15.70
2007,08,30,01,11,15.70
2007,08,30,01,12,15.70
2007,08,30,01,13,15.70
2007,08,30,01,14,15.70
2007,08,30,01,15,15.60
2007,08,30,01,16,15.60
2007,08,30,01,17,15.60
2007,08,30,01,18,15.60
2007,08,30,01,19,15.60
2007,08,30,01,20,15.60
2007,08,30,01,21,15.70
2007,08,30,01,22,15.70
2007,08,30,01,23,15.70
2007,08,30,01,24,15.70
2007,08,30,01,25,15.70
2007,08,30,01,26,15.70
2007,08,30,01,27,15.70
2007,08,30,01,28,15.60
2007,08,30,01,29,15.60
2007,08,30,01,30,15.60
2007,08,30,01,31,15.60
2007,08,30,01,32,15.60
2007,08,30,01,33,15.50
2007,08,30,01,34,15.50
2007,08,30,01,35,15.40
2007,08,30,01,36,15.40
2007,08,30,01,37,15.40
2007,08,30,01,38,15.40
2007,08,30,01,39,15.30
2007,08,30,01,40,15.30
2007,08,30,01,41,15.30
2007,08,30,01,42,15.30
2007,08,30,01,43,15.30
2007,08,30,01,44,15.30
2007,08,30,01,45,15.30
2007,08,30,01,46,15.30
2007,08,30,01,47,15.30
2007,08,30,01,48,15.30
2007,08,30,01,49,15.30
2007,08,30,01,50,15.30
2007,08,30,01,51,15.40
2007,08,30,01,52,15.40
2007,08,30,01,53,15.40
2007,08,30,01,54,15.40
2007,08,30,01,55,15.40
2007,08,30,01,56,15.40
2007,08,30,01,57,15.40
2007,08,30,01,58,15.40
2007,08,30,01,59,15.40
2007,08,30,02,00,15.40
2007,08,30,02,01,15.40
2007,08,30,02,02,15.40
2007,08,30,02,03,15.40
2007,08,30,02,04,15.30
2007,08,30,02,05,15.30
2007,08,30,02,06,15.30
2007,08,30,02,07,15.30
2007,08,30,02,08,15.30
2007,08,30,02,09,15.20
2007,08,30,02,10,15.20
2007,08,30,02,11,15.20
2007,08,30,02,12,15.20
2007,08,30,02,13,15.20
2007,08,30,02,14,15.20
2007,08,30,02,15,15.20
2007,08,30,02,16,15.20
2007,08,30,02,17,15.20
2007,08,30,02,18,15.10
2007,08,30,02,19,15.10
2007,08,30,02,20,15.10
2007,08,30,02,21,15.10
2007,08,30,02,22,15.10
2007,08,30,02,23,15.10
2007,08,30,02,24,15.10
2007,08,30,02,25,15.20
2007,08,30,02,26,15.20
2007,08,30,02,27,15.20
2007,08,30,02,28,15.20
2007,08,30,02,29,15.20
2007,08,30,02,30,15.20
2007,08,30,02,31,15.20
2007,08,30,02,32,15.20
2007,08,30,02,33,15.20
2007,08,30,02,34,15.20
2007,08,30,02,35,15.20
2007,08,30,02,36,15.20
2007,08,30,02,37,15.20
2007,08,30,02,38,15.20
2007,08,30,02,39,15.20
2007,08,30,02,40,15.20
2007,08,30,02,41,15.20
2007,08,30,02,42,15.20
2007,08,30,02,43,15.20
2007,08,30,02,44,15.20
2007,08,30,02,45,15.20
2007,08,30,02,46,15.20
2007,08,30,02,47,15.20
2007,08,30,02,48,15.20
2007,08,30,02,49,15.20
2007,08,30,02,50,15.20
2007,08,30,02,51,15.20
2007,08,30,02,52,15.20
2007,08,30,02,53,15.20
2007,08,30,02,54,15.20
2007,08,30,02,55,15.20
2007,08,30,02,56,15.20
2007,08,30,02,57,15.20
2007,08,30,02,58,15.20
2007,08,30,02,59,15.20
2007,08,30,03,00,15.20
2007,08,30,03,01,15.20
2007,08,30,03,02,15.20
2007,08,30,03,03,15.30
2007,08,30,03,04,15.30
2007,08,30,03,05,15.30
2007,08,30,03,06,15.30
2007,08,30,03,07,15.40
2007,08,30,03,08,15.40
2007,08,30,03,09,15.40
2007,08,30,03,10,15.40
2007,08,30,03,11,15.50
2007,08,30,03,12,15.50
2007,08,30,03,13,15.50
2007,08,30,03,14,15.50
2007,08,30,03,15,15.40
2007,08,30,03,16,15.40
2007,08,30,03,17,15.40
2007,08,30,03,18,15.40
2007,08,30,03,19,15.40
2007,08,30,03,20,15.30
2007,08,30,03,21,15.30
2007,08,30,03,22,15.30
2007,08,30,03,23,15.30
2007,08,30,03,24,15.30
2007,08,30,03,25,15.30
2007,08,30,03,26,15.30
2007,08,30,03,27,15.30
2007,08,30,03,28,15.30
2007,08,30,03,29,15.30
2007,08,30,03,30,15.30
2007,08,30,03,31,15.30
2007,08,30,03,32,15.30
2007,08,30,03,33,15.30
2007,08,30,03,34,15.30
2007,08,30,03,35,15.30
2007,08,30,03,36,15.30
2007,08,30,03,37,15.30
2007,08,30,03,38,15.30
2007,08,30,03,39,15.30
2007,08,30,03,40,15.30
2007,08,30,03,41,15.30
2007,08,30,03,42,15.30
2007,08,30,03,43,15.40
2007,08,30,03,44,15.40
2007,08,30,03,45,15.40
2007,08,30,03,46,15.40
2007,08,30,03,47,15.40
2007,08,30,03,48,15.40
2007,08,30,03,49,15.40
2007,08,30,03,50,15.40
2007,08,30,03,51,15.30
2007,08,30,03,52,15.30
2007,08,30,03,53,15.30
2007,08,30,03,54,15.30
2007,08,30,03,55,15.30
2007,08,30,03,56,15.30
2007,08,30,03,57,15.20
2007,08,30,03,58,15.20
2007,08,30,03,59,15.10
2007,08,30,04,00,15.10
2007,08,30,04,01,15.00
2007,08,30,04,02,15.00
2007,08,30,04,03,15.00
2007,08,30,04,04,15.00
2007,08,30,04,05,15.00
2007,08,30,04,06,15.00
2007,08,30,04,07,15.00
2007,08,30,04,08,15.00
2007,08,30,04,09,15.00
2007,08,30,04,10,15.00
2007,08,30,04,11,15.00
2007,08,30,04,12,15.00
2007,08,30,04,13,15.00
2007,08,30,04,14,15.00
2007,08,30,04,15,15.00
2007,08,30,04,16,15.00
2007,08,30,04,17,15.00
2007,08,30,04,18,15.00
2007,08,30,04,19,15.00
2007,08,30,04,20,15.00
2007,08,30,04,21,15.00
2007,08,30,04,22,15.00
2007,08,30,04,23,15.00
2007,08,30,04,24,15.00
2007,08,30,04,25,15.00
2007,08,30,04,26,14.90
2007,08,30,04,27,14.90
2007,08,30,04,28,14.80
2007,08,30,04,29,14.80
2007,08,30,04,30,14.80
2007,08,30,04,31,14.80
2007,08,30,04,32,14.70
2007,08,30,04,33,14.70
2007,08,30,04,34,14.70
2007,08,30,04,35,14.60
2007,08,30,04,36,14.60
2007,08,30,04,37,14.60
2007,08,30,04,38,14.50
2007,08,30,04,39,14.50
2007,08,30,04,40,14.50
2007,08,30,04,41,14.40
2007,08,30,04,42,14.40
2007,08,30,04,43,14.40
2007,08,30,04,44,14.40
2007,08,30,04,45,14.40
2007,08,30,04,46,14.40
2007,08,30,04,47,14.30
2007,08,30,04,48,14.30
2007,08,30,04,49,14.30
2007,08,30,04,50,14.30
2007,08,30,04,51,14.30
2007,08,30,04,52,14.20
2007,08,30,04,53,14.20
2007,08,30,04,54,14.30
2007,08,30,04,55,14.30
2007,08,30,04,56,14.30
2007,08,30,04,57,14.30
2007,08,30,04,58,14.30
2007,08,30,04,59,14.30
2007,08,30,05,00,14.30
2007,08,30,05,01,14.30
2007,08,30,05,02,14.30
2007,08,30,05,03,14.40
2007,08,30,05,04,14.40
2007,08,30,05,05,14.40
2007,08,30,05,06,14.40
2007,08,30,05,07,14.40
2007,08,30,05,08,14.30
2007,08,30,05,09,14.30
2007,08,30,05,10,14.30
2007,08,30,05,11,14.20
2007,08,30,05,12,14.20
2007,08,30,05,13,14.10
2007,08,30,05,14,14.10
2007,08,30,05,15,14.10
2007,08,30,05,16,14.10
2007,08,30,05,17,14.00
2007,08,30,05,18,14.00
2007,08,30,05,19,14.00
2007,08,30,05,20,13.90
2007,08,30,05,21,13.90
2007,08,30,05,22,13.90
2007,08,30,05,23,13.90
2007,08,30,05,24,13.90
2007,08,30,05,25,13.90
2007,08,30,05,26,13.90
2007,08,30,05,27,13.90
2007,08,30,05,28,13.90
2007,08,30,05,29,13.80
2007,08,30,05,30,13.80
2007,08,30,05,31,13.80
2007,08,30,05,32,13.80
2007,08,30,05,33,13.80
2007,08,30,05,34,13.80
2007,08,30,05,35,13.70
2007,08,30,05,36,13.70
2007,08,30,05,37,13.70
2007,08,30,05,38,13.70
2007,08,30,05,39,13.70
2007,08,30,05,40,13.60
2007,08,30,05,41,13.60
2007,08,30,05,42,13.60
2007,08,30,05,43,13.60
2007,08,30,05,44,13.50
2007,08,30,05,45,13.50
2007,08,30,05,46,13.40
2007,08,30,05,47,13.40
2007,08,30,05,48,13.40
2007,08,30,05,49,13.40
2007,08,30,05,50,13.40
2007,08,30,05,51,13.40
2007,08,30,05,52,13.30
2007,08,30,05,53,13.30
2007,08,30,05,54,13.30
2007,08,30,05,55,13.40
2007,08,30,05,56,13.40
2007,08,30,05,57,13.40
2007,08,30,05,58,13.40
2007,08,30,05,59,13.40
2007,08,30,06,00,13.40
2007,08,30,06,01,13.40
2007,08,30,06,02,13.40
2007,08,30,06,03,13.40
2007,08,30,06,04,13.40
2007,08,30,06,05,13.40
2007,08,30,06,06,13.40
2007,08,30,06,07,13.40
2007,08,30,06,08,13.40
2007,08,30,06,09,13.40
2007,08,30,06,10,13.40
2007,08,30,06,11,13.40
2007,08,30,06,12,13.40
2007,08,30,06,13,13.40
2007,08,30,06,14,13.40
2007,08,30,06,15,13.30
2007,08,30,06,16,13.30
2007,08,30,06,17,13.30
2007,08,30,06,18,13.30
2007,08,30,06,19,13.30
2007,08,30,06,20,13.30
2007,08,30,06,21,13.20
2007,08,30,06,22,13.20
2007,08,30,06,23,13.20
2007,08,30,06,24,13.20
2007,08,30,06,25,13.20
2007,08,30,06,26,13.10
2007,08,30,06,27,13.10
2007,08,30,06,28,13.10
2007,08,30,06,29,13.10
2007,08,30,06,30,13.10
2007,08,30,06,31,13.10
2007,08,30,06,32,13.10
2007,08,30,06,33,13.10
2007,08,30,06,34,13.10
2007,08,30,06,35,13.10
2007,08,30,06,36,13.20
2007,08,30,06,37,13.20
2007,08,30,06,38,13.20
2007,08,30,06,39,13.20
2007,08,30,06,40,13.20
2007,08,30,06,41,13.20
2007,08,30,06,42,13.20
2007,08,30,06,43,13.20
2007,08,30,06,44,13.20
2007,08,30,06,45,13.20
2007,08,30,06,46,13.20
2007,08,30,06,47,13.20
2007,08,30,06,48,13.20
2007,08,30,06,49,13.20
2007,08,30,06,50,13.10
2007,08,30,06,51,13.10
2007,08,30,06,52,13.10
2007,08,30,06,53,13.10
2007,08,30,06,54,13.10
2007,08,30,06,55,13.10
2007,08,30,06,56,13.10
2007,08,30,06,57,13.10
2007,08,30,06,58,13.10
2007,08,30,06,59,13.10
2007,08,30,07,00,13.10
2007,08,30,07,01,13.10
2007,08,30,07,02,13.00
2007,08,30,07,03,13.00
2007,08,30,07,04,13.00
2007,08,30,07,05,13.00
2007,08,30,07,06,13.00
2007,08,30,07,07,13.00
2007,08,30,07,08,12.90
2007,08,30,07,09,12.90
2007,08,30,07,10,12.90
2007,08,30,07,11,12.90
2007,08,30,07,12,12.90
2007,08,30,07,13,12.90
2007,08,30,07,14,12.90
2007,08,30,07,15,12.90
2007,08,30,07,16,13.00
2007,08,30,07,17,13.00
2007,08,30,07,18,13.00
2007,08,30,07,19,13.00
2007,08,30,07,20,13.00
2007,08,30,07,21,13.00
2007,08,30,07,22,13.10
2007,08,30,07,23,13.10
2007,08,30,07,24,13.10
2007,08,30,07,25,13.10
2007,08,30,07,26,13.20
2007,08,30,07,27,13.20
2007,08,30,07,28,13.20
2007,08,30,07,29,13.20
2007,08,30,07,30,13.20
2007,08,30,07,31,13.20
2007,08,30,07,32,13.30
2007,08,30,07,33,13.30
2007,08,30,07,34,13.30
2007,08,30,07,35,13.40
2007,08,30,07,36,13.40
2007,08,30,07,37,13.40
2007,08,30,07,38,13.50
2007,08,30,07,39,13.60
2007,08,30,07,40,13.70
2007,08,30,07,41,13.70
2007,08,30,07,42,13.80
2007,08,30,07,43,13.80
2007,08,30,07,44,13.80
2007,08,30,07,45,13.80
2007,08,30,07,46,13.90
2007,08,30,07,47,13.90
2007,08,30,07,48,13.90
2007,08,30,07,49,14.00
2007,08,30,07,50,14.00
2007,08,30,07,51,14.10
2007,08,30,07,52,14.10
2007,08,30,07,53,14.20
2007,08,30,07,54,14.20
2007,08,30,07,55,14.20
2007,08,30,07,56,14.30
2007,08,30,07,57,14.30
2007,08,30,07,58,14.30
2007,08,30,07,59,14.40
2007,08,30,08,00,14.40
2007,08,30,08,01,14.40
2007,08,30,08,02,14.50
2007,08,30,08,03,14.60
2007,08,30,08,04,14.60
2007,08,30,08,05,14.70
2007,08,30,08,06,14.70
2007,08,30,08,07,14.70
2007,08,30,08,08,14.80
2007,08,30,08,09,14.80
2007,08,30,08,10,14.90
2007,08,30,08,11,15.00
2007,08,30,08,12,15.00
2007,08,30,08,13,15.00
2007,08,30,08,14,15.00
2007,08,30,08,15,15.00
2007,08,30,08,16,15.00
2007,08,30,08,17,15.00
2007,08,30,08,18,15.10
2007,08,30,08,19,15.10
2007,08,30,08,20,15.20
2007,08,30,08,21,15.20
2007,08,30,08,22,15.20
2007,08,30,08,23,15.30
2007,08,30,08,24,15.30
2007,08,30,08,25,15.30
2007,08,30,08,26,15.40
2007,08,30,08,27,15.40
2007,08,30,08,28,15.40
2007,08,30,08,29,15.50
2007,08,30,08,30,15.50
2007,08,30,08,31,15.60
2007,08,30,08,32,15.60
2007,08,30,08,33,15.60
2007,08,30,08,34,15.60
2007,08,30,08,35,15.60
2007,08,30,08,36,15.70
2007,08,30,08,37,15.70
2007,08,30,08,38,15.70
2007,08,30,08,39,15.70
2007,08,30,08,40,15.80
2007,08,30,08,41,15.80
2007,08,30,08,42,15.80
2007,08,30,08,43,15.90
2007,08,30,08,44,15.90
2007,08,30,08,45,16.00
2007,08,30,08,46,16.10
2007,08,30,08,47,16.10
2007,08,30,08,48,16.20
2007,08,30,08,49,16.30
2007,08,30,08,50,16.40
2007,08,30,08,51,16.40
2007,08,30,08,52,16.50
2007,08,30,08,53,16.50
2007,08,30,08,54,16.60
2007,08,30,08,55,16.60
2007,08,30,08,56,16.70
2007,08,30,08,57,16.70
2007,08,30,08,58,16.70
2007,08,30,08,59,16.80
2007,08,30,09,00,16.80
2007,08,30,09,01,16.90
2007,08,30,09,02,16.90
2007,08,30,09,03,16.90
2007,08,30,09,04,17.00
2007,08,30,09,05,17.00
2007,08,30,09,06,17.00
2007,08,30,09,07,17.10
2007,08,30,09,08,17.10
2007,08,30,09,09,17.10
2007,08,30,09,10,17.10
2007,08,30,09,11,17.10
2007,08,30,09,12,17.20
2007,08,30,09,13,17.20
2007,08,30,09,14,17.20
2007,08,30,09,15,17.20
2007,08,30,09,16,17.30
2007,08,30,09,17,17.30
2007,08,30,09,18,17.30
2007,08,30,09,19,17.30
2007,08,30,09,20,17.40
2007,08,30,09,21,17.40
2007,08,30,09,22,17.40
2007,08,30,09,23,17.40
2007,08,30,09,24,17.50
2007,08,30,09,25,17.50
2007,08,30,09,26,17.50
2007,08,30,09,27,17.60
2007,08,30,09,28,17.60
2007,08,30,09,29,17.70
2007,08,30,09,30,17.70
2007,08,30,09,31,17.70
2007,08,30,09,32,17.80
2007,08,30,09,33,17.80
2007,08,30,09,34,17.90
2007,08,30,09,35,17.90
2007,08,30,09,36,18.00
2007,08,30,09,37,18.00
2007,08,30,09,38,18.10
2007,08,30,09,39,18.10
2007,08,30,09,40,18.20
2007,08,30,09,41,18.20
2007,08,30,09,42,18.30
2007,08,30,09,43,18.30
2007,08,30,09,44,18.40
2007,08,30,09,45,18.50
2007,08,30,09,46,18.50
2007,08,30,09,47,18.60
2007,08,30,09,48,18.70
2007,08,30,09,49,18.80
2007,08,30,09,50,18.80
2007,08,30,09,51,18.90
2007,08,30,09,52,18.90
2007,08,30,09,53,18.90
2007,08,30,09,54,19.00
2007,08,30,09,55,19.00
2007,08,30,09,56,19.10
2007,08,30,09,57,19.10
2007,08,30,09,58,19.20
2007,08,30,09,59,19.20
2007,08,30,10,00,19.30
2007,08,30,10,01,19.30
2007,08,30,10,02,19.40
2007,08,30,10,03,19.50
2007,08,30,10,04,19.60
2007,08,30,10,05,19.60
2007,08,30,10,06,19.70
2007,08,30,10,07,19.70
2007,08,30,10,08,19.80
2007,08,30,10,09,19.80
2007,08,30,10,10,19.80
2007,08,30,10,11,19.80
2007,08,30,10,12,19.90
2007,08,30,10,13,20.00
2007,08,30,10,14,20.00
2007,08,30,10,15,20.10
2007,08,30,10,16,20.20
2007,08,30,10,17,20.30
2007,08,30,10,18,20.40
2007,08,30,10,19,20.50
2007,08,30,10,20,20.60
2007,08,30,10,21,20.70
2007,08,30,10,22,20.80
2007,08,30,10,23,20.90
2007,08,30,10,24,20.90
2007,08,30,10,25,20.80
2007,08,30,10,26,20.80
2007,08,30,10,27,20.80
2007,08,30,10,28,20.80
2007,08,30,10,29,20.80
2007,08,30,10,30,20.80
2007,08,30,10,31,20.80
2007,08,30,10,32,20.90
2007,08,30,10,33,20.90
2007,08,30,10,34,21.00
2007,08,30,10,35,21.10
2007,08,30,10,36,21.10
2007,08,30,10,37,21.00
2007,08,30,10,38,20.90
2007,08,30,10,39,20.80
2007,08,30,10,40,20.80
2007,08,30,10,41,20.80
2007,08,30,10,42,20.80
2007,08,30,10,43,20.80
2007,08,30,10,44,20.80
2007,08,30,10,45,20.80
2007,08,30,10,46,20.90
2007,08,30,10,47,21.00
2007,08,30,10,48,21.00
2007,08,30,10,49,21.00
2007,08,30,10,50,21.10
2007,08,30,10,51,21.10
2007,08,30,10,52,21.00
2007,08,30,10,53,20.90
2007,08,30,10,54,20.80
2007,08,30,10,55,20.80
2007,08,30,10,56,20.70
2007,08,30,10,57,20.60
2007,08,30,10,58,20.60
2007,08,30,10,59,20.50
2007,08,30,11,00,20.50
2007,08,30,11,01,20.60
2007,08,30,11,02,20.60
2007,08,30,11,03,20.60
2007,08,30,11,04,20.60
2007,08,30,11,05,20.60
2007,08,30,11,06,20.60
2007,08,30,11,07,20.50
2007,08,30,11,08,20.40
2007,08,30,11,09,20.40
2007,08,30,11,10,20.40
2007,08,30,11,11,20.30
2007,08,30,11,12,20.30
2007,08,30,11,13,20.40
2007,08,30,11,14,20.50
2007,08,30,11,15,20.50
2007,08,30,11,16,20.60
2007,08,30,11,17,20.60
2007,08,30,11,18,20.70
2007,08,30,11,19,20.70
2007,08,30,11,20,20.60
2007,08,30,11,21,20.60
2007,08,30,11,22,20.50
2007,08,30,11,23,20.50
2007,08,30,11,24,20.50
2007,08,30,11,25,20.60
2007,08,30,11,26,20.60
2007,08,30,11,27,20.70
2007,08,30,11,28,20.80
2007,08,30,11,29,20.90
2007,08,30,11,30,20.90
2007,08,30,11,31,21.00
2007,08,30,11,32,21.00
2007,08,30,11,33,21.10
2007,08,30,11,34,21.10
2007,08,30,11,35,21.20
2007,08,30,11,36,21.20
2007,08,30,11,37,21.30
2007,08,30,11,38,21.40
2007,08,30,11,39,21.40
2007,08,30,11,40,21.50
2007,08,30,11,41,21.60
2007,08,30,11,42,21.70
2007,08,30,11,43,21.80
2007,08,30,11,44,21.80
2007,08,30,11,45,21.80
2007,08,30,11,46,22.00
2007,08,30,11,47,22.10
2007,08,30,11,48,22.10
2007,08,30,11,49,22.20
2007,08,30,11,50,22.30
2007,08,30,11,51,22.30
2007,08,30,11,52,22.40
2007,08,30,11,53,22.50
2007,08,30,11,54,22.60
2007,08,30,11,55,22.60
2007,08,30,11,56,22.50
2007,08,30,11,57,22.40
2007,08,30,11,58,22.30
2007,08,30,11,59,22.10
2007,08,30,12,00,22.00
2007,08,30,12,01,21.90
2007,08,30,12,02,21.80
2007,08,30,12,03,21.70
2007,08,30,12,04,21.60
2007,08,30,12,05,21.60
2007,08,30,12,06,21.60
2007,08,30,12,07,21.50
2007,08,30,12,08,21.50
2007,08,30,12,09,21.50
2007,08,30,12,10,21.70
2007,08,30,12,11,21.80
2007,08,30,12,12,21.90
2007,08,30,12,13,21.90
2007,08,30,12,14,21.90
2007,08,30,12,15,21.90
2007,08,30,12,16,21.90
2007,08,30,12,17,21.80
2007,08,30,12,18,21.80
2007,08,30,12,19,21.80
2007,08,30,12,20,21.70
2007,08,30,12,21,21.70
2007,08,30,12,22,21.60
2007,08,30,12,23,21.60
2007,08,30,12,24,21.60
2007,08,30,12,25,21.60
2007,08,30,12,26,21.60
2007,08,30,12,27,21.60
2007,08,30,12,28,21.60
2007,08,30,12,29,21.60
2007,08,30,12,30,21.60
2007,08,30,12,31,21.60
2007,08,30,12,32,21.70
2007,08,30,12,33,21.70
2007,08,30,12,34,21.70
2007,08,30,12,35,21.80
2007,08,30,12,36,21.80
2007,08,30,12,37,21.80
2007,08,30,12,38,21.80
2007,08,30,12,39,21.80
2007,08,30,12,40,21.80
2007,08,30,12,41,21.80
2007,08,30,12,42,21.80
2007,08,30,12,43,21.80
2007,08,30,12,44,21.80
2007,08,30,12,45,21.90
2007,08,30,12,46,21.80
2007,08,30,12,47,21.80
2007,08,30,12,48,21.70
2007,08,30,12,49,21.80
2007,08,30,12,50,21.80
2007,08,30,12,51,21.80
2007,08,30,12,52,21.80
2007,08,30,12,53,21.80
2007,08,30,12,54,21.80
2007,08,30,12,55,21.80
2007,08,30,12,56,21.80
2007,08,30,12,57,21.80
2007,08,30,12,58,21.80
2007,08,30,12,59,21.90
2007,08,30,13,00,21.90
2007,08,30,13,01,22.00
2007,08,30,13,02,22.00
2007,08,30,13,03,22.10
2007,08,30,13,04,22.10
2007,08,30,13,05,22.10
2007,08,30,13,06,22.10
2007,08,30,13,07,22.20
2007,08,30,13,08,22.20
2007,08,30,13,09,22.30
2007,08,30,13,10,22.40
2007,08,30,13,11,22.40
2007,08,30,13,12,22.40
2007,08,30,13,13,22.40
2007,08,30,13,14,22.40
2007,08,30,13,15,22.40
2007,08,30,13,16,22.50
2007,08,30,13,17,22.50
2007,08,30,13,18,22.60
2007,08,30,13,19,22.70
2007,08,30,13,20,22.80
2007,08,30,13,21,22.80
2007,08,30,13,22,23.00
2007,08,30,13,23,23.10
2007,08,30,13,24,23.20
2007,08,30,13,25,23.20
2007,08,30,13,26,23.30
2007,08,30,13,27,23.30
2007,08,30,13,28,23.40
2007,08,30,13,29,23.50
2007,08,30,13,30,23.50
2007,08,30,13,31,23.60
2007,08,30,13,32,23.50
2007,08,30,13,33,23.40
2007,08,30,13,34,23.30
2007,08,30,13,35,23.30
2007,08,30,13,36,23.20
2007,08,30,13,37,23.20
2007,08,30,13,38,23.20
2007,08,30,13,39,23.10
2007,08,30,13,40,23.10
2007,08,30,13,41,23.00
2007,08,30,13,42,23.00
2007,08,30,13,43,23.00
2007,08,30,13,44,22.90
2007,08,30,13,45,22.90
2007,08,30,13,46,22.90
2007,08,30,13,47,22.90
2007,08,30,13,48,22.80
2007,08,30,13,49,22.80
2007,08,30,13,50,22.70
2007,08,30,13,51,22.70
2007,08,30,13,52,22.70
2007,08,30,13,53,22.80
2007,08,30,13,54,22.80
2007,08,30,13,55,22.90
2007,08,30,13,56,22.90
2007,08,30,13,57,23.00
2007,08,30,13,58,23.10
2007,08,30,13,59,23.10
2007,08,30,14,00,23.20
2007,08,30,14,01,23.30
2007,08,30,14,02,23.50
2007,08,30,14,03,23.50
2007,08,30,14,04,23.50
2007,08,30,14,05,23.50
2007,08,30,14,06,23.60
2007,08,30,14,07,23.70
2007,08,30,14,08,23.90
2007,08,30,14,09,24.00
2007,08,30,14,10,24.20
2007,08,30,14,11,24.40
2007,08,30,14,12,24.60
2007,08,30,14,13,24.80
2007,08,30,14,14,24.90
2007,08,30,14,15,25.10
2007,08,30,14,16,25.20
2007,08,30,14,17,25.30
2007,08,30,14,18,25.30
2007,08,30,14,19,25.30
2007,08,30,14,20,25.20
2007,08,30,14,21,25.30
2007,08,30,14,22,25.30
2007,08,30,14,23,25.30
2007,08,30,14,24,25.30
2007,08,30,14,25,25.40
2007,08,30,14,26,25.50
2007,08,30,14,27,25.60
2007,08,30,14,28,25.70
2007,08,30,14,29,25.70
2007,08,30,14,30,25.80
2007,08,30,14,31,25.90
2007,08,30,14,32,26.00
2007,08,30,14,33,26.20
2007,08,30,14,34,26.30
2007,08,30,14,35,26.40
2007,08,30,14,36,26.40
2007,08,30,14,37,26.40
2007,08,30,14,38,26.20
2007,08,30,14,39,26.00
2007,08,30,14,40,25.90
2007,08,30,14,41,25.80
2007,08,30,14,42,25.80
2007,08,30,14,43,25.80
2007,08,30,14,44,25.80
2007,08,30,14,45,25.90
2007,08,30,14,46,25.90
2007,08,30,14,47,25.90
2007,08,30,14,48,25.90
2007,08,30,14,49,25.90
2007,08,30,14,50,26.00
2007,08,30,14,51,26.00
2007,08,30,14,52,26.00
2007,08,30,14,53,25.90
2007,08,30,14,54,25.90
2007,08,30,14,55,25.90
2007,08,30,14,56,25.90
2007,08,30,14,57,25.90
2007,08,30,14,58,25.90
2007,08,30,14,59,25.90
2007,08,30,15,00,25.90
2007,08,30,15,01,25.90
2007,08,30,15,02,26.00
2007,08,30,15,03,26.10
2007,08,30,15,04,26.10
2007,08,30,15,05,26.10
2007,08,30,15,06,26.20
2007,08,30,15,07,26.20
2007,08,30,15,08,26.30
2007,08,30,15,09,26.40
2007,08,30,15,10,26.40
2007,08,30,15,11,26.40
2007,08,30,15,12,26.40
2007,08,30,15,13,26.30
2007,08,30,15,14,26.30
2007,08,30,15,15,26.10
2007,08,30,15,16,25.90
2007,08,30,15,17,25.80
2007,08,30,15,18,25.70
2007,08,30,15,19,25.60
2007,08,30,15,20,25.60
2007,08,30,15,21,25.80
2007,08,30,15,22,25.80
2007,08,30,15,23,25.90
2007,08,30,15,24,26.00
2007,08,30,15,25,26.10
2007,08,30,15,26,26.20
2007,08,30,15,27,26.10
2007,08,30,15,28,26.10
2007,08,30,15,29,26.00
2007,08,30,15,30,25.90
2007,08,30,15,31,25.90
2007,08,30,15,32,25.90
2007,08,30,15,33,25.90
2007,08,30,15,34,25.90
2007,08,30,15,35,26.00
2007,08,30,15,36,26.10
2007,08,30,15,37,26.10
2007,08,30,15,38,26.10
2007,08,30,15,39,26.10
2007,08,30,15,40,26.10
2007,08,30,15,41,26.20
2007,08,30,15,42,26.20
2007,08,30,15,43,26.30
2007,08,30,15,44,26.30
2007,08,30,15,45,26.40
2007,08,30,15,46,26.50
2007,08,30,15,47,26.50
2007,08,30,15,48,26.60
2007,08,30,15,49,26.60
2007,08,30,15,50,26.60
2007,08,30,15,51,26.60
2007,08,30,15,52,26.60
2007,08,30,15,53,26.70
2007,08,30,15,54,26.70
2007,08,30,15,55,26.80
2007,08,30,15,56,26.80
2007,08,30,15,57,26.80
2007,08,30,15,58,26.80
2007,08,30,15,59,26.90
2007,08,30,16,00,26.90
2007,08,30,16,01,27.00
2007,08,30,16,02,27.10
2007,08,30,16,03,27.10
2007,08,30,16,04,27.20
2007,08,30,16,05,27.20
2007,08,30,16,06,27.20
2007,08,30,16,07,27.10
2007,08,30,16,08,27.10
2007,08,30,16,09,27.10
2007,08,30,16,10,27.00
2007,08,30,16,11,27.00
2007,08,30,16,12,26.90
2007,08,30,16,13,26.90
2007,08,30,16,14,26.80
2007,08,30,16,15,26.80
2007,08,30,16,16,26.90
2007,08,30,16,17,26.90
2007,08,30,16,18,26.90
2007,08,30,16,19,26.90
2007,08,30,16,20,26.90
2007,08,30,16,21,26.90
2007,08,30,16,22,26.90
2007,08,30,16,23,26.80
2007,08,30,16,24,26.80
2007,08,30,16,25,26.80
2007,08,30,16,26,26.80
2007,08,30,16,27,26.80
2007,08,30,16,28,26.80
2007,08,30,16,29,26.80
2007,08,30,16,30,26.80
2007,08,30,16,31,26.80
2007,08,30,16,32,26.70
2007,08,30,16,33,26.70
2007,08,30,16,34,26.70
2007,08,30,16,35,26.70
2007,08,30,16,36,26.60
2007,08,30,16,37,26.60
2007,08,30,16,38,26.50
2007,08,30,16,39,26.50
2007,08,30,16,40,26.50
2007,08,30,16,41,26.50
2007,08,30,16,42,26.40
2007,08,30,16,43,26.50
2007,08,30,16,44,26.50
2007,08,30,16,45,26.40
2007,08,30,16,46,26.40
2007,08,30,16,47,26.40
2007,08,30,16,48,26.40
2007,08,30,16,49,26.40
2007,08,30,16,50,26.40
2007,08,30,16,51,26.40
2007,08,30,16,52,26.40
2007,08,30,16,53,26.40
2007,08,30,16,54,26.40
2007,08,30,16,55,26.40
2007,08,30,16,56,26.40
2007,08,30,16,57,26.40
2007,08,30,16,58,26.40
2007,08,30,16,59,26.40
2007,08,30,17,00,26.50
2007,08,30,17,01,26.50
2007,08,30,17,02,26.50
2007,08,30,17,03,26.50
2007,08,30,17,04,26.50
2007,08,30,17,05,26.50
2007,08,30,17,06,26.50
2007,08,30,17,07,26.50
2007,08,30,17,08,26.50
2007,08,30,17,09,26.50
2007,08,30,17,10,26.50
2007,08,30,17,11,26.50
2007,08,30,17,12,26.50
2007,08,30,17,13,26.50
2007,08,30,17,14,26.50
2007,08,30,17,15,26.30
2007,08,30,17,16,26.30
2007,08,30,17,17,26.30
2007,08,30,17,18,26.30
2007,08,30,17,19,26.30